#timestamp,LO_Frequency,Hit,StdDev 
1512799215.0,286046985.8,N
1512799215.9,286046985.8,N
1512799235.8,286046991.9,N
1512799255.6,286046991.8,N
1512799275.4,286046988.5,N
1512799295.3,286046991.1,N
1512799315.1,286046993.9,N
1512799316.0,286046993.9,N
1512799335.8,286046994.3,N
1512799355.7,286046991.8,N
1512799375.5,286046998.0,N
1512799395.3,286046999.8,N
1512799415.1,286047000.3,N
1512799435.9,286047003.4,N
1512799455.7,286047003.7,N
1512799475.5,286047004.4,N
1512799495.4,286047005.3,N
1512799515.2,286047004.7,N
1512799535.0,286047012.4,N
1512799535.9,286047012.4,N
1512799555.8,286047012.4,N
1512799575.6,286047009.7,N
1512799595.4,286047011.6,N
1512799615.3,286047011.0,N
1512799635.1,286047017.1,N
1512799636.0,286047017.1,N
1512799655.8,286047019.8,N
1512799675.7,286047019.8,N
1512799695.5,286047019.6,N
1512799715.3,286047019.0,N
1512799735.2,286047023.3,N
1512799755.9,286047022.5,N
1512799775.7,286047025.2,N
1512799795.5,286047024.0,N
1512799815.4,286047020.7,N
1512799835.2,286047022.0,N
1512799855.0,286047015.8,N
1512799855.9,286047015.8,N
1512799875.8,286047014.5,N
1512799895.6,286047015.0,N
1512799915.4,286047012.5,N
1512799935.3,286047013.7,N
1512799955.1,286047010.9,N
1512799956.0,286047010.9,N
1512799975.8,286047013.0,N
1512799995.7,286047012.7,N
1512800015.5,286047012.2,N
1512800035.3,286047011.2,N
1512800055.2,286047012.8,N
1512800075.9,286047011.1,N
1512800095.7,286047012.2,N
1512800115.5,286047011.0,N
1512800135.4,286047012.9,N
1512800155.2,286047015.2,Y
1512800175.1,286046996.7,P
1512800176.0,286046996.7,N
1512800195.8,286046998.0,N
1512800215.6,286046997.6,N
1512800235.4,286046996.3,N
1512800255.3,286046996.3,N
1512800275.1,286046996.0,N
1512800295.8,286046995.1,N
1512800315.7,286047000.0,N
1512800335.5,286047001.1,N
1512800355.3,286047002.3,N
1512800375.2,286046998.6,N
1512800395.9,286046996.7,N
1512800415.7,286046993.9,N
1512800435.6,286046996.2,N
1512800455.4,286046995.7,N
1512800475.2,286046996.4,N
1512800495.0,286046996.9,N
1512800496.0,286046996.9,N
1512800515.8,286046997.5,N
1512800535.6,286046999.5,N
1512800555.4,286046997.9,N
1512800575.3,286046996.1,N
1512800595.1,286046994.8,N
1512800615.8,286046992.1,N
1512800635.7,286046990.8,N
1512800655.5,286046993.2,N
1512800675.3,286046994.9,N
1512800695.2,286046997.8,N
1512800715.9,286046997.9,N
1512800735.7,286046995.8,N
1512800755.6,286046996.4,N
1512800775.4,286046994.2,N
1512800795.2,286046991.8,Y
1512800815.1,286046996.8,P
1512800816.0,286046996.8,P
1512800835.8,286046999.4,P
1512800855.6,286046999.2,N
1512800875.5,286046997.5,N
1512800895.3,286046999.0,N
1512800915.1,286047000.8,N
1512800935.8,286047003.8,N
1512800955.7,286047001.5,N
1512800975.5,286047002.2,N
1512800995.3,286046999.0,N
1512801015.2,286046998.9,N
1512801035.0,286046998.4,N
1512801035.9,286046998.4,N
1512801055.7,286046997.5,N
1512801075.6,286046995.5,N
1512801095.4,286046997.9,N
1512801115.2,286047002.8,N
1512801135.1,286046998.6,N
1512801136.0,286046998.6,N
1512801155.8,286046998.9,N
1512801175.6,286047000.4,N
1512801195.5,286047001.2,N
1512801215.3,286046999.5,N
1512801235.1,286046999.1,N
1512801255.9,286047000.2,N
1512801275.7,286047000.6,N
1512801295.5,286047004.4,N
1512801315.3,286047003.4,N
1512801335.2,286047004.7,N
1512801355.0,286047006.2,N
1512801355.9,286047006.2,N
1512801375.7,286047004.9,N
1512801395.6,286047006.9,N
1512801415.4,286047007.8,N
1512801435.2,286047010.2,Y
1512801455.1,286047010.4,P
1512801456.0,286047010.4,N
1512801475.8,286047011.1,N
1512801495.6,286047011.2,N
1512801515.5,286047011.8,Y
1512801535.3,286047002.3,P
1512801555.1,286047000.2,N
1512801575.9,286046998.9,N
1512801595.7,286046998.8,N
1512801615.5,286047000.2,N
1512801635.4,286046999.2,N
1512801655.2,286046999.3,N
1512801675.0,286047001.1,N
1512801675.9,286047001.1,N
1512801695.8,286047000.0,N
1512801715.6,286047002.0,N
1512801735.4,286047005.7,N
1512801755.3,286047007.2,N
1512801775.1,286047007.6,N
1512801776.0,286047007.6,N
1512801795.8,286047005.3,N
1512801815.6,286047006.9,N
1512801835.5,286047009.2,N
1512801855.3,286047007.6,N
1512801875.1,286047004.1,N
1512801895.9,286047004.9,N
1512801915.7,286047003.2,N
1512801935.5,286047005.4,N
1512801955.4,286047005.7,N
1512801975.2,286047005.4,N
1512801995.0,286047007.0,N
1512801995.9,286047007.0,N
1512802015.8,286047003.8,N
1512802035.6,286046999.1,N
1512802055.4,286046998.7,N
1512802075.2,286047000.9,N
1512802095.1,286046999.2,N
1512802096.0,286046999.2,N
1512802115.8,286046998.1,N
1512802135.6,286047002.1,N
1512802155.5,286047002.0,N
1512802175.3,286047000.9,N
1512802195.1,286047001.2,N
1512802215.9,286047000.0,N
1512802235.7,286047000.4,N
1512802255.5,286046997.9,N
1512802275.4,286046996.6,N
1512802295.2,286047000.1,N
1512802315.0,286046999.8,N
1512802315.9,286046999.8,N
1512802335.8,286046998.9,N
1512802355.6,286046996.9,N
1512802375.4,286046995.8,N
1512802395.3,286046997.2,N
1512802415.1,286047000.3,N
1512802416.0,286047000.3,N
1512802435.8,286047000.9,N
1512802455.7,286047000.4,N
1512802475.5,286046999.2,N
1512802495.3,286046996.0,N
1512802515.1,286046994.7,N
1512802535.9,286046996.2,N
1512802555.7,286046995.3,N
1512802575.5,286046997.4,N
1512802595.4,286046995.4,N
1512802615.2,286046996.7,N
1512802635.0,286046995.1,N
1512802635.9,286046995.1,N
1512802655.8,286046995.7,N
1512802675.6,286046996.3,N
1512802695.4,286046991.6,Y
1512802715.3,286046990.5,P
1512802735.1,286046989.4,N
1512802755.8,286046989.1,N
1512802775.7,286046991.0,N
1512802795.5,286046990.8,N
